Location: East Guldeford
(50.9500°N, 0.7500°E)
Time: 17:30:32
(UTC+00:00)

Cosmos 2181 Rocket - Pass Details

Date: 12 May 2021
Orbit: 952 x 1014 km, 82.9° (Epoch: 16 June)

Event Time Altitude Azimuth Distance (km) Brightness Sun altitude
Exits shadow 22:11:55 27° 146° (SSE) 1,764 4.8 -17.2°
Maximum altitude 22:14:54 46° 90° (E) 1,266 4.4 -17.4°
Drops below altitude 10° 22:20:43 10° 19° (NNE) 2,692 7.0 -17.8°
Sets 22:23:18 0° 14° (NNE) 3,641 7.9 -17.9°
